Weather History for Rawlins, WY

Change the Weather History Date:

Monday, May 13, 2013

  Actual Average Record
Temperature  
Mean Temperature 65 °F 48 °F  
Max Temperature 82 °F 63 °F 82 °F (2013)
Min Temperature 48 °F 34 °F 17 °F (2014)
Degree Days  
Heating Degree Days 0 16  
Month to date heating degree days 229 238  
Since 1 July heating degree days 7708 7957  
Cooling Degree Days 0 0  
Month to date cooling degree days 0 0  
Year to date cooling degree days 0 0  
Growing Degree Days 16 (Base 50)    
Moisture  
Dew Point 28 °F    
Average Humidity 29    
Maximum Humidity 46    
Minimum Humidity 11    
Precipitation  
Precipitation 0.00 in 0.04 in 0.76 in (1965)
Month to date precipitation 0.10 0.57  
Year to date precipitation 1.69 3.08  
Sea Level Pressure  
Sea Level Pressure 29.97 in    
Wind  
Wind Speed 13 mph (WSW)    
Max Wind Speed 25 mph    
Max Gust Speed 30 mph    
Visibility 10 miles    
Events      
T = Trace of Precipitation, MM = Missing Value Source: NWS Daily Summary

Daily Weather History Graph

Daily Weather History Graph

Search for Another Location

Airport:

Trip Planner

Search our weather history database for the weather conditions in past years. The results will help you decide how hot, cold, wet, or windy it might be!

Date:

Astronomy

May. 13, 2013 Rise Set
Actual Time 5:50 AM MDT 8:20 PM MDT
Civil Twilight 5:18 AM MDT 8:52 PM MDT
Nautical Twilight 4:39 AM MDT 9:31 PM MDT
Astronomical Twilight 3:55 AM MDT 10:15 PM MDT
Moon 8:38 AM MDT (5/13) 11:31 PM MDT (5/13)
Length of Visible Light 15h 33m
Length of Day
14h 29m
Waxing Crescent, 12% of the Moon is Illuminated
May 13
Waxing Crescent
May 17
First Quarter
May 24
Full
May 31
Last Quarter
Jun 8
New

Hourly Weather History & Observations

Time (MDT) Temp. Dew Point Humidity Pressure Visibility Wind Dir Wind Speed Gust Speed Precip Events Conditions
12:53 AM 50.0 °F 30.0 °F 46% 30.01 in 10.0 mi WSW 6.9 mph - N/A   Clear
1:53 AM 52.0 °F 28.9 °F 41% 30.00 in 10.0 mi Calm Calm - N/A   Clear
2:53 AM 55.9 °F 28.9 °F 36% 29.98 in 10.0 mi WSW 12.7 mph - N/A   Clear
3:53 AM 54.0 °F 30.0 °F 40% 29.99 in 10.0 mi WSW 13.8 mph - N/A   Clear
4:53 AM 54.0 °F 30.0 °F 40% 30.00 in 10.0 mi WSW 11.5 mph - N/A   Clear
6:53 AM 55.0 °F 32.0 °F 42% 30.02 in 10.0 mi WSW 12.7 mph - N/A   Clear
7:53 AM 59.0 °F 32.0 °F 36% 30.04 in 10.0 mi Variable 4.6 mph - N/A   Clear
8:53 AM 64.9 °F 32.0 °F 29% 30.06 in 10.0 mi West 9.2 mph - N/A   Clear
9:53 AM 69.1 °F 30.9 °F 24% 30.04 in 10.0 mi WSW 13.8 mph - N/A   Clear
10:53 AM 73.0 °F 30.9 °F 21% 30.04 in 10.0 mi West 15.0 mph - N/A   Clear
11:53 AM 75.9 °F 28.9 °F 18% 30.02 in 10.0 mi WSW 17.3 mph 26.5 mph N/A   Clear
12:53 PM 78.1 °F 27.0 °F 15% 29.99 in 10.0 mi West 15.0 mph - N/A   Clear
2:53 PM 82.0 °F 24.1 °F 12% 29.91 in 10.0 mi WSW 17.3 mph 26.5 mph N/A   Scattered Clouds
3:51 PM 80.6 °F 21.2 °F 11% 30.20 in 10.0 mi WSW 16.1 mph 26.5 mph N/A   Scattered Clouds
3:53 PM 80.1 °F 21.0 °F 11% 29.91 in 10.0 mi West 19.6 mph 26.5 mph N/A   Scattered Clouds
4:53 PM 80.1 °F 23.0 °F 12% 29.89 in 10.0 mi WSW 18.4 mph 23.0 mph N/A   Partly Cloudy
6:53 PM 75.0 °F 25.0 °F 16% 29.88 in 10.0 mi SW 16.1 mph - N/A   Scattered Clouds
7:53 PM 73.0 °F 26.1 °F 17% 29.87 in 10.0 mi SW 12.7 mph - N/A   Clear
8:53 PM 66.0 °F 30.9 °F 27% 29.87 in 10.0 mi SW 12.7 mph - N/A   Clear
9:53 PM 63.0 °F 28.9 °F 28% 29.88 in 10.0 mi SW 6.9 mph - N/A   Clear
10:53 PM 62.1 °F 28.9 °F 29% 29.86 in 10.0 mi WSW 8.1 mph - N/A   Mostly Cloudy
11:53 PM 64.0 °F 28.9 °F 27% 29.83 in 10.0 mi WSW 15.0 mph - N/A   Clear